Weather observations for the past three days for
Chattanooga, Lovell Field
Imperial (Metric)
Date Time (edt) Wind (mph) Vis. (mi.) Weather Sky Cond. Temperature (ºF) Relative Humidity Wind Chill (°F) Heat Index (°F) Pressure Precipitation (in)
Air Dwpt 6 hour altimeter (in) sea level (mb) 1 hr 3 hr 6 hr
Max. Min.
23 22:53 S 5 7.00 Overcast BKN007 BKN150 OVC250 75 72 90% 74 30.14 1019.6
23 21:53 S 7 8.00 Mostly Cloudy SCT012 BKN110 BKN150 BKN250 75.9 73 91% 76 30.14 1019.8
23 19:53 S 6 8.00 Mostly Cloudy BKN009 BKN014 BKN180 BKN250 77 73 82 73.9 88% 78 30.11 1019.0 0.61
23 18:53 S 6 7.00 Mostly Cloudy SCT010 BKN042 BKN100 BKN250 77 73 88% 78 30.1 1018.6
23 17:53 S 6 7.00 Mostly Cloudy FEW010 SCT040 BKN090 BKN250 75.9 73 91% 76 30.1 1018.6 0.01
23 16:53 Calm 4.00 Light Rain Fog/Mist SCT012 BKN032 BKN080 BKN250 75 71.1 88% 75 30.1 1018.5 0.07 0.6
23 15:53 E 5 3.00 Light Rain Fog/Mist SCT018 SCT055 OVC085 73.9 71.1 91% 30.12 1019.2 0.53
23 14:53 E 9 9.00 Light Rain SCT016CB BKN025 BKN038 BKN200 OVC250 75.9 70 82% 77 30.11 1018.9
23 13:53 NW 9 10.00 Overcast SCT012CB BKN037 BKN090 BKN150 OVC250 81 73.9 82 73 79% 86 30.11 1018.9 0.03 0.28
23 12:53 NE 3 3.00 Light Rain Fog/Mist BKN018CB BKN034 BKN150 OVC250 73.9 71.1 91% 30.13 1019.4 0.25
23 11:53 Calm 9.00 Light Rain SCT017CB SCT035 SCT150 BKN200 BKN250 82 73 74% 87 30.12 1019.1
23 10:53 Calm 8.00 Mostly Cloudy BKN015 BKN150 BKN250 79 72 79% 82 30.12 1019.0
23 09:53 N 3 8.00 Overcast SCT007 SCT014 BKN180 OVC230 77 73 88% 78 30.11 1018.8
23 08:53 NW 3 9.00 Overcast SCT007 BKN016 BKN065 OVC180 75.9 72 88% 76 30.1 1018.5
23 07:53 Calm 9.00 Patches Fog FEW005 FEW020 SCT065 BKN180 75 72 77 73 90% 74 30.09 1018.2 0.02
23 06:53 Calm 10.00 Patches Fog FEW005 FEW019 BKN065 BKN190 73.9 71.1 91% 30.09 1017.9
23 05:53 NW 5 10.00 Mostly Cloudy FEW004 FEW019 SCT050 BKN190 73 72 96% 30.07 1017.6
23 04:53 E 3 10.00 Overcast SCT019 BKN055 OVC070 75 72 90% 74 30.06 1016.8 0.02 0.02
23 03:53 Calm 10.00 Fair CLR 75 71.1 88% 75 30.05 1016.6
23 02:53 Calm 10.00 Fair CLR 75 71.1 88% 75 30.05 1016.8
23 01:53 Calm 10.00 Partly Cloudy SCT080 77 70 82 75.9 79% 79 30.05 1016.6
23 00:53 Calm 10.00 Fair CLR 77 71.1 82% 79 30.05 1016.8
22 23:53 Calm 10.00 Mostly Cloudy SCT040 BKN060 BKN080 BKN250 77 71.1 82% 79 30.06 1016.9
22 22:53 S 3 10.00 Mostly Cloudy SCT090 SCT120 SCT200 BKN250 79 71.1 77% 82 30.04 1016.3
22 21:53 Calm 10.00 Mostly Cloudy SCT080 SCT150 BKN250 80.1 70 71% 83 30.03 1016.0
22 20:53 W 3 10.00 Mostly Cloudy SCT040 SCT080 SCT150 BKN250 80.1 71.1 74% 84 30.01 1015.4
22 19:53 NW 5 10.00 Mostly Cloudy FEW050TCU SCT100 SCT150 BKN250 82 72 89.1 82 72% 87 29.99 1014.7
22 18:53 W 9 10.00 Mostly Cloudy FEW050 SCT100 BKN150 BKN200 BKN250 84.9 70 61% 89 29.98 1014.4
22 17:53 SW 8 10.00 Mostly Cloudy SCT040 SCT150 BKN200 BKN250 84.9 69.1 59% 89 29.99 1014.5
22 16:53 Vrbl 5 10.00 Overcast BKN043 BKN200 OVC250 86 69.1 57% 90 29.99 1014.6
22 15:53 Vrbl 5 10.00 Mostly Cloudy SCT040 SCT070 BKN250 89.1 69.1 52% 94 30 1014.8
22 14:53 S 8 10.00 Mostly Cloudy SCT027 BKN036 BKN055 84.9 70 61% 89 30.03 1016.0
22 13:53 Vrbl 3 10.00 Mostly Cloudy SCT020 BKN027 BKN032 84 71.1 84 73.9 65% 89 30.05 1016.8
22 12:53 Calm 10.00 Overcast SCT015 OVC023 80.1 69.1 69% 83 30.07 1017.4
22 11:53 Calm 10.00 Overcast SCT012 OVC021 79 68 69% 81 30.07 1017.5
22 10:53 S 5 9.00 Overcast SCT012 OVC021 78.1 69.1 74% 80 30.07 1017.6
22 09:53 S 6 8.00 Overcast OVC019 75.9 70 82% 77 30.06 1017.3
22 08:53 S 6 8.00 Overcast OVC018 73.9 70 88% 30.06 1017.2
22 07:53 Calm 10.00 Overcast OVC019 73.9 70 73.9 71.1 88% 30.04 1016.4
22 06:53 Calm 7.00 Overcast OVC017 73 70 90% 30.04 1016.2
22 05:53 Calm 7.00 Mostly Cloudy SCT025 SCT160 BKN250 73 69.1 87% 30.03 1015.8
22 04:53 Calm 10.00 Partly Cloudy SCT022 71.1 69.1 94% 30.02 1015.6
22 03:53 Calm 10.00 Mostly Cloudy BKN090 72 69.1 91% 30.01 1015.3
22 02:53 Calm 10.00 A Few Clouds FEW110 72 69.1 91% 30.03 1016.0
22 01:53 Calm 10.00 A Few Clouds FEW026 72 70 77 72 94% 30.05 1016.6 0.05
22 00:53 Calm 10.00 Fair CLR 72 70 94% 30.05 1016.9
21 23:53 Calm 10.00 Mostly Cloudy FEW010 FEW035 SCT120 BKN250 73 70 90% 30.04 1016.5
21 22:53 Calm 10.00 Mostly Cloudy FEW075 SCT120 BKN250 73 70 90% 30.04 1016.5 0.05
21 21:53 W 8 G 20 7.00 Thunderstorm Light Rain FEW010 BKN055 OVC110 73 68 84% 30.05 1016.6 0.04
21 20:53 N 9 9.00 Thunderstorm Light Rain FEW008 SCT037 BKN055 72 68 87% 30.04 1016.6 0.01
21 19:53 E 12 G 36 10.00 Thunderstorm FEW010 FEW028CB BKN090 BKN150 BKN250 77 66 91.9 77 69% 79 30.03 1016.2
21 18:53 S 15 G 20 10.00 Thunderstorm in Vicinity SCT035CB SCT045 BKN080 BKN150 BKN250 87.1 71.1 59% 93 29.98 1014.2
21 17:53 S 8 10.00 Mostly Cloudy SCT043 SCT055 BKN075 BKN150 BKN250 88 72 59% 95 29.97 1013.8
21 16:53 SE 9 G 17 10.00 Mostly Cloudy SCT045 BKN055 BKN150 BKN250 90 70 52% 95 29.97 1013.8
21 15:53 SE 10 10.00 Mostly Cloudy SCT055 BKN150 BKN250 91 70 50% 97 29.98 1014.3
21 14:53 Vrbl 5 10.00 Mostly Cloudy SCT045 SCT055 BKN150 BKN250 90 69.1 50% 95 30 1015.1
21 13:53 Calm 10.00 Mostly Cloudy SCT035 SCT050 BKN065 BKN150 BKN250 88 70 88 77 55% 93 30.04 1016.1
21 12:53 Vrbl 5 10.00 Mostly Cloudy SCT028 BKN036 BKN250 88 70 55% 93 30.06 1016.8
21 11:53 Calm 10.00 Mostly Cloudy SCT028 BKN036 BKN250 86 70 59% 91 30.06 1017.1
21 10:53 S 3 10.00 Mostly Cloudy SCT022 SCT030 BKN036 BKN250 82 71.1 69% 86 30.07 1017.3
21 09:53 Calm 10.00 Mostly Cloudy SCT017 BKN032 BKN250 80.1 71.1 74% 84 30.07 1017.3
21 08:53 SW 3 10.00 Mostly Cloudy SCT022 BKN034 BKN250 79 71.1 77% 82 30.07 1017.5
21 07:53 Calm 10.00 Overcast SCT015 BKN022 OVC028 77 72 77 75.9 85% 78 30.07 1017.3
21 06:53 SE 3 10.00 Overcast SCT015 BKN022 OVC028 77 72 85% 78 30.06 1016.9
21 05:53 Calm 10.00 Overcast SCT010 BKN015 OVC022 75.9 72 88% 76 30.05 1016.8
21 04:53 S 6 10.00 Overcast OVC019 75.9 72 88% 76 30.04 1016.3
21 03:53 S 3 10.00 Overcast OVC021 75.9 72 88% 76 30.05 1016.5
21 02:53 SW 3 10.00 Overcast OVC029 77 72 85% 78 30.06 1016.8
21 01:53 S 5 10.00 Mostly Cloudy BKN020 BKN090 77 72 86 77 85% 78 30.07 1017.4
21 00:53 S 6 10.00 Mostly Cloudy BKN070 78.1 71.1 79% 80 30.06 1017.0
20 23:53 S 6 10.00 Mostly Cloudy FEW038 SCT050 BKN065 79 70 74% 82 30.07 1017.4
Date Time (edt) Wind (mph) Vis. (mi.) Weather Sky Cond. Air Dwpt Max. Min. Relative Humidity Wind Chill (°F) Heat Index (°F) altimeter (in) sea level (mb) 1 hr 3 hr 6 hr
6 hour
Temperature (ºF) Pressure Precipitation (in)